Location: Codford Saint Peter
(51.1597°N, 2.0531°W)
Time: 04:58:45
(UTC+00:00)

Envisat - Pass Details

Date: 29 January 2022
Orbit: 764 x 765 km, 98.2° (Epoch: 22 May)

Event Time Altitude Azimuth Distance (km) Brightness Sun altitude
Rises 04:04:38 0° 23° (NNE) 3,243 6.7 -35.1°
Reaches altitude 10° 04:07:21 10° 37° (NE) 2,312 6.0 -34.7°
Maximum altitude 04:11:30 25° 92° (E) 1,523 5.0 -34.1°
Drops below altitude 10° 04:15:38 10° 146° (SSE) 2,299 5.6 -33.4°
Sets 04:18:19 0° 160° (SSE) 3,220 6.3 -33.0°
